Find GSAT-6

NORAD ID: 40880 Int'l Des: 2015-041 Owner: ISRO Country: IN operational
HEOCIRCULARGSO

Live Position

Loading 3D Globe...

About GSAT-6

Description loading...

Upcoming Passes

Passes for default location (London). Set your location on the main map for personalized predictions.

Altitude History

Loading altitude history...

Two-Line Element Set

1 40880U 15041A 26104.08308595 -.00000154 00000-0 00000+0 0 9992
2 40880 1.7544 83.3675 0003079 307.5146 283.7570 1.00270662 38951
Epoch: Apr 14, 2026 • Age: 46 hours

Current Status

Altitude 35788.4 km
Velocity 3.07 km/s
Sub-Earth Point -0.84°S, 82.4°E
Launch Date Aug 27, 2015
Age 10.6 years
Type other

Technical Details

Classification Payload
Mass 2117.00 kg
Dry Mass 985.00 kg
Total Mass 2217.00 kg
Length 3.60 m
Diameter 2.00 m
Span 9.50 m
Shape Box + 2 Pan
Manufacturer ISAC
Bus Type I2K
Phase Status In Orbit
Owner/State ISRO/IN

Most Searched